User: anonymous   Login
Location: Diebersbach
(48.5163°N, 8.0558°E)
Time: 15:26:37
(UTC+00:00)
Language:

CZ-3B R/B - Orbit

View from above orbital plane
View from above orbital plane
View from above satellite
View from above satellite

Ground track
Ground track

The orbit data is extracted from the following two-line orbital elements,

1 43649U 18078C   21262.82331050  .00000582  00000-0  26649-3 0  9990
2 43649  54.8710 135.4243 5573737 162.8143 228.5219  4.62723583 48907
Epoch (UTC): 19 September 2021 19:45:34
Eccentricity: 0.5573737
inclination: 54.8710°
perigee height: 355 km
apogee height: 17312 km
right ascension of ascending node: 135.4243°
argument of perigee: 162.8143°
revolutions per day: 4.62723583
mean anomaly at epoch: 228.5219°
orbit number at epoch: 4890

The dashed part of the orbit path shows where the satellite is in the earth's shadow,  

DLR